Weather History for China Lake, CA

Change the Weather History Date:

Saturday, February 23, 2013

  Actual Average Record
Temperature  
Mean Temperature 48 °F -  
Max Temperature 66 °F 59 °F 78 °F (2012)
Min Temperature 30 °F 39 °F 27 °F (2006)
Degree Days  
Heating Degree Days 17    
Moisture  
Dew Point 19 °F    
Average Humidity 32    
Maximum Humidity 54    
Minimum Humidity 19    
Precipitation  
Precipitation 0.00 in - - ()
Sea Level Pressure  
Sea Level Pressure 29.95 in    
Wind  
Wind Speed 9 mph (West)    
Max Wind Speed 28 mph    
Max Gust Speed 38 mph    
Visibility 10 miles    
Events      
Averages and records for this station are not official NWS values.
T = Trace of Precipitation, MM = Missing Value Source: NWS Daily Summary

Daily Weather History Graph

Daily Weather History Graph

Search for Another Location

Airport:

Trip Planner

Search our weather history database for the weather conditions in past years. The results will help you decide how hot, cold, wet, or windy it might be!

Date:

Astronomy

Feb. 23, 2013 Rise Set
Actual Time 6:27 AM PST 5:40 PM PST
Civil Twilight 6:02 AM PST 6:06 PM PST
Nautical Twilight 5:32 AM PST 6:36 PM PST
Astronomical Twilight 5:02 AM PST 7:05 PM PST
Moon 3:57 PM PST (2/23) 4:50 AM PST (2/23)
Length of Visible Light 12h 04m
Length of Day
11h 12m
Waxing Gibbous, 96% of the Moon is Illuminated
Feb 23
Waxing Gibbous
Feb 25
Full
Mar 4
Last Quarter
Mar 11
New
Mar 19
First Quarter

Hourly Weather History & Observations

Time (PST) Temp. Windchill Dew Point Humidity Pressure Visibility Wind Dir Wind Speed Gust Speed Precip Events Conditions
12:56 AM 39.9 °F 36.7 °F 18.0 °F 41% 30.08 in 10.0 mi Variable 4.6 mph - N/A   Clear
1:56 AM 37.9 °F 34.4 °F 17.1 °F 43% 30.05 in 10.0 mi SW 4.6 mph - N/A   Clear
2:56 AM 35.1 °F - 15.1 °F 44% 30.03 in 10.0 mi Calm Calm - N/A   Clear
3:56 AM 33.1 °F 25.5 °F 12.9 °F 43% 30.00 in 10.0 mi WSW 9.2 mph - N/A   Clear
4:56 AM 35.1 °F 29.3 °F 18.0 °F 50% 29.96 in 10.0 mi SSE 6.9 mph - N/A   Clear
5:56 AM 34.0 °F - 19.0 °F 54% 29.96 in 10.0 mi Calm Calm - N/A   Clear
6:56 AM 30.9 °F 23.5 °F 15.1 °F 52% 29.96 in 10.0 mi West 8.1 mph - N/A   Clear
7:56 AM 34.0 °F 31.0 °F 18.0 °F 52% 29.99 in 10.0 mi Variable 3.5 mph - N/A   Clear
8:56 AM 45.0 °F 41.8 °F 23.0 °F 42% 29.97 in 10.0 mi South 5.8 mph - N/A   Clear
9:56 AM 48.9 °F - 24.1 °F 38% 29.94 in 10.0 mi Calm Calm - N/A   Clear
10:56 AM 55.9 °F - 24.1 °F 29% 29.89 in 10.0 mi Calm Calm - N/A   Clear
11:56 AM 64.9 °F - 24.1 °F 21% 29.85 in 10.0 mi WSW 24.2 mph 33.4 mph N/A   Clear
12:13 PM 66.2 °F - 24.8 °F 21% 29.83 in 10.0 mi WSW 24.2 mph 36.8 mph N/A   Clear
12:56 PM 66.0 °F - 24.1 °F 20% 29.81 in 10.0 mi WSW 26.5 mph 33.4 mph N/A   Clear
1:56 PM 64.9 °F - 21.9 °F 19% 29.79 in 10.0 mi West 26.5 mph 38.0 mph N/A   Clear
2:56 PM 63.0 °F - 24.1 °F 23% 29.80 in 10.0 mi West 27.6 mph 33.4 mph N/A   Clear
3:56 PM 63.0 °F - 21.9 °F 21% 29.81 in 10.0 mi West 17.3 mph 25.3 mph N/A   Clear
4:56 PM 61.0 °F - 21.9 °F 22% 29.84 in 10.0 mi WNW 11.5 mph - N/A   Clear
5:56 PM 57.0 °F - 24.1 °F 28% 29.90 in 10.0 mi West 9.2 mph 16.1 mph N/A   Clear
6:56 PM 53.1 °F - 18.0 °F 25% 29.96 in 10.0 mi WNW 19.6 mph 28.8 mph N/A   Clear
7:56 PM 50.0 °F - 16.0 °F 26% 30.01 in 10.0 mi NNW 13.8 mph 25.3 mph N/A   Clear
8:56 PM 48.9 °F - 14.0 °F 25% 30.05 in 10.0 mi NNW 18.4 mph 24.2 mph N/A   Mostly Cloudy
9:56 PM 46.9 °F - 12.0 °F 24% 30.08 in 9.0 mi NW 25.3 mph 33.4 mph N/A   Scattered Clouds
10:56 PM 46.0 °F 40.6 °F 9.0 °F 22% 30.11 in 10.0 mi North 11.5 mph 17.3 mph N/A   Clear
11:56 PM 44.1 °F 37.7 °F 8.1 °F 23% 30.12 in 10.0 mi North 12.7 mph - N/A   Clear